Regional Weather Roundup
Issued by NWS Jackson, KY

Home | Current Version | Previous Version | Text Only | Print | Product List | Glossary Off
Versions: 1 2 3 4 5 6 7 8 9 10 11 12 13 14 15 16 17 18 19 20 21 22 23 24 25 26 27 28 29 30 31 32 33 34 35 36 37 38 39 40 41 42 43 44 45 46 47 48 49 50

000
ASUS43 KJKL 262010
RWRJKL

EAST KENTUCKY HOURLY WEATHER ROUNDUP
NATIONAL WEATHER SERVICE JACKSON KY
400 PM EDT SUN MAR 26 2017

NOTE: "FAIR" INDICATES FEW OR NO CLOUDS BELOW 12,000 FEET WITH
NO SIGNIFICANT WEATHER AND/OR OBSTRUCTIONS TO VISIBILITY.

* THESE REPORTS ARE NOT UNDER NWS QUALITY CONTROL AND MAY NOT
  REPORT WEATHER SUCH AS PRECIPITATION AND FOG.

KYZ079-080-083-085-087-088-110-112-115-119-120-262100
...EASTERN KENTUCKY...

CITY           SKY/WX    TMP DP  RH WIND       PRES   REMARKS
JACKSON        HVY RAIN  58  57  97 VRB3      30.01R VSB 1/2
LONDON         LGT RAIN  60  58  92 SW7       30.00F FOG
SOMERSET*      CLOUDY    63  55  77 S13       30.00F
MONTICELLO*    CLOUDY    66  59  78 SW18G26   30.00F
WILLIAMSBURG*  MOCLDY    61  61 100 SW3       30.00F
MIDDLESBORO*   CLOUDY    67  59  76 NE3       30.02F
HARLAN APT*    CLOUDY    63  57  82 CALM      30.02F
PIKE CO APT*   LGT RAIN  64  58  80 SW3       30.01R
BIG SANDY APT* RAIN      62  57  83 W6        30.01R
MOREHEAD APT*  CLOUDY    66  55  68 S13G18    29.98F
ASHLAND*       CLOUDY    57  54  88 SE6       29.98S
$$

KYZ035-036-041-042-044-050-067-078-099-262100
...CENTRAL KENTUCKY...

CITY           SKY/WX    TMP DP  RH WIND       PRES   REMARKS
MT STERLING*   PTSUNNY   68  54  60 W12G17    29.97F
FLEMING/MASON* CLOUDY    67  57  70 SW15      29.95F
DANVILLE*      PTSUNNY   70  54  56 SW12      29.96F
LEXINGTON      CLOUDY    68  53  58 SW16G24   29.94F
FRANKFORT      PTSUNNY   70  51  51 SW13      29.91F
LOUISVILLE     CLOUDY    71  50  47 SW14G22   29.89F
LEBANON*       MOCLDY    68  55  64 S14       29.94F
GLASGOW*       RAIN      61  61 100 W7        29.96R
BOWLING GREEN  PTSUNNY   72  56  57 S12G17    29.94F
$$

KYZ091>093-OHZ055-061-077-WVZ005-015-034-035-042-262100
...SOUTHERN OHIO/WEST VIRGINIA...

CITY           SKY/WX    TMP DP  RH WIND       PRES   REMARKS
COVINGTON      PTSUNNY   66  55  67 S14G22    29.89F
COLUMBUS       CLOUDY    57  55  93 SE7       29.94F
DAYTON         CLOUDY    63  55  75 S13       29.90F
WILMINGTON     CLOUDY    62  56  80 S13       29.91F
HUNTINGTON     TSTM      57  54  89 S8        30.00R VSB 1
CHARLESTON     LGT RAIN  69  51  52 S15G25    29.97F
PINEVILLE*     CLOUDY    71  46  40 MISG      30.06F
BECKLEY        PTSUNNY   64  51  62 SE16G25   30.06F
BLUEFIELD      PTSUNNY   61  49  64 S13G24    30.09F
LOGAN CO APT*    N/A     61  59  94 CALM      29.99S
$$

VAZ002-007-008-TNZ017-027-036-066-071-262100
...SOUTHWEST VIRGINIA/EAST TENNESSEE...

CITY           SKY/WX    TMP DP  RH WIND       PRES   REMARKS
WISE*          RAIN      63  50  63 SW14G21   30.06R
JONESVILLE*      N/A     64  59  82 W7        30.04R
ABINGDON*      PTSUNNY   73  49  43 W12G17    30.03F
BRISTOL        CLOUDY    73  48  41 S17G25    30.01F
MORRISTOWN*    PTCLDY    68  59  73 W9        30.01F
SEVIERVILLE*   PTCLDY    73  50  43 SW15      30.01R
KNOXVILLE      PTSUNNY   69  58  67 SW9       30.00F
LAFOLLETTE*    MOCLDY    70  55  60 SW9G21    30.03F
OAK RIDGE      PTSUNNY   72  56  57 SW10G20   30.01F
CROSSVILLE     MOSUNNY   66  55  67 S14G30    30.02F
NASHVILLE      PTSUNNY   70  52  52 SW12G21   29.97F
$$

...KEY TO REMARKS...
VSB - VISIBILITY IN MILES
WCI - WIND CHILL INDEX
HX  - HEAT INDEX

$$



USA.gov is the U.S. government's official web portal to all federal, state and local government web resources and services.